TITAN 3C TRANSTAGE DEB, 2789

Orbit data source: Space-Track

TITAN 3C TRANSTAGE DEB, 2789 is space debris in LEO originally from a launch on Fri, 15 Oct 1965 UTC launched from the Air Force Eastern Test Range (AFETR). Debris objects in space refer to the collection of defunct objects orbiting the Earth. Examples of debris include non-operational satellites, rocket bodies, and fragments generated from explosions, collisions, or faulty payload assembly.

Loading next visibility...
TITAN 3C TRANSTAGE DEB details
Identifier
2789, 1965-082KR
Orbit
LEO
Last TLE update23 hours ago
Origin
Flag of USUSAF SSD (US)
ManufacturerUnknown
MissionSpacecraft
Bus & MotorUnknown
MassUnknown
Launch date (UTC)
1965-10-15 (59 years ago)
Launch vehicleUnknown
Launch site
Air Force Eastern Test Range (AFETR)
Object type
Payload
Rocket body
Debris
Shape & HBRUnknown
Radar Cross SectionSmall (<0.1 m²)

Expand to show TLE details & history

TLE from 23 hours ago
0 TITAN 3C TRANSTAGE DEB
1 02789U 65082KR  24355.60260223  .00031090  00000-0  23601-2 0  9994
2 02789  32.2771 322.9845 0052763 144.7095 215.7073 15.00034603998762
Epoch: 2024-12-20T14:27Z
Definitive object data (Epoch: 2024-12-20T14:27:44.832Z)
Latitude-0.00002°
Longitude16.38192°
Altitude595.244 km
Speed7.548 km/s
True Right ascension21h 31m 56s
True Declination0° 00' 00"
Sunlit
Object was in daylight at TLE epoch
Visualization TLE readout
Latitude17.83446°
Longitude40.94076°
Altitude582.164 km
Speed7.564 km/s
Apparent Right ascension23h 31m 33s
Apparent Declination-9° 39' 57"
Sunlit
Object is in daylight
Visualization observer readout
Local Sidereal Time12:00:30
Azimuth13.989° NNE
Elevation-59.071°
Doppler factor1
Orbital elements
Apogee altitude607.087 km
Perigee altitude533.762 km
Semi-major axis6,948.561 km
Eccentricity0.0052763
Inclination32.2771°
RAAN322.9845°
Arg. of periapsis144.7095°
True anomaly215.3563°
Mean anomaly215.7073°
Eccentric anomaly215.53161°
Mean motion3.74715 °/min
BSTAR0.0023601
Orbital period96.07 mins
Loading maneuver chart data...

TITAN 3C TRANSTAGE DEB Visibility forecast

Observer location: undefined°, undefined

Span
Click to sort rows by Start time (UTC) header in descending order
Start Az.
Max El. time (UTC)
Max El. Az.
Max El.
End time (UTC)
End Az.
5 mins2024-12-22 01:51:37.599Z202.389° SSW2024-12-22 01:53:37.599Z170.851° S18.085°2024-12-22 01:56:37.599Z122.133° SE
5 mins2024-12-22 03:32:37.599Z226.351° WSW2024-12-22 03:34:37.599Z188.538° SSW24.918°2024-12-22 03:37:37.599Z127.298° SE
4 mins2024-12-22 05:14:37.599Z221.49° SW2024-12-22 05:15:37.599Z202.159° SSW20.083°2024-12-22 05:18:37.599Z147.956° SSE
|